East Milton, MA

10:44 AM EDT on June 28, 2017 (GMT -0400)
East Milton

Weather History for KMQE - March, 2013

Change the Weather History Date:

Monday, March 4, 2013

  Actual Average (KOWD) Record (KOWD)
Temperature  
Mean Temperature 32 °F -  
Max Temperature 37 °F 40 °F 60 °F (2008)
Min Temperature 27 °F 23 °F 0 °F (2014)
Degree Days  
Heating Degree Days 33    
Moisture  
Dew Point 22 °F    
Average Humidity 66    
Maximum Humidity 79    
Minimum Humidity 50    
Precipitation  
Precipitation 0.00 in - - ()
Sea Level Pressure  
Sea Level Pressure 29.64 in    
Wind  
Wind Speed 14 mph (WNW)    
Max Wind Speed 22 mph    
Max Gust Speed 33 mph    
Averages and records for this station are not official NWS values.
T = Trace of Precipitation, MM = Missing Value Source: NWS Daily Summary

Daily Weather History Graph

Daily Weather History Graph

Search for Another Location

Airport or City:

Trip Planner

Search our weather history database for the weather conditions in past years. The results will help you decide how hot, cold, wet, or windy it might be!

Date:

Astronomy

Mar. 04, 2013 Rise Set
Actual Time 6:14 AM EST 5:38 PM EST
Civil Twilight 5:46 AM EST 6:06 PM EST
Nautical Twilight 5:14 AM EST 6:38 PM EST
Astronomical Twilight 4:41 AM EST 7:11 PM EST
Moon 12:25 AM EST (3/4) 10:12 AM EST (3/4)
Length of Visible Light 12h 19m
Length of Day
11h 23m
Waning Gibbous, 52% of the Moon is Illuminated
Mar 4
Waning Gibbous
Mar 4
Last Quarter
Mar 11
New
Mar 19
First Quarter
Mar 27
Full

Hourly Weather History & Observations

Time (EST) Temp. Windchill Dew Point Humidity Pressure Visibility Wind Dir Wind Speed Gust Speed Precip Events Conditions
12:54 AM 30.0 °F 23.2 °F 24.1 °F 79% 29.60 in - WNW 6.9 mph - N/A   Unknown
1:54 AM 30.0 °F 20.0 °F 23.0 °F 75% 29.61 in - WNW 12.7 mph 21.9 mph N/A   Unknown
2:54 AM 30.0 °F 20.5 °F 23.0 °F 75% 29.61 in - NW 11.5 mph 21.9 mph N/A   Unknown
3:54 AM 28.9 °F 19.2 °F 21.9 °F 75% 29.61 in - NW 11.5 mph 21.9 mph N/A   Unknown
4:54 AM 28.0 °F 17.5 °F 21.0 °F 75% 29.62 in - WNW 12.7 mph 19.6 mph N/A   Unknown
5:54 AM 27.0 °F 15.6 °F 19.9 °F 75% 29.63 in - WNW 13.8 mph 21.9 mph N/A   Unknown
6:54 AM 27.0 °F 15.2 °F 19.9 °F 75% 29.64 in - WNW 15.0 mph 24.2 mph N/A   Unknown
7:54 AM 28.0 °F 15.3 °F 19.0 °F 69% 29.64 in - WNW 18.4 mph 26.5 mph N/A   Unknown
8:54 AM 30.0 °F 18.3 °F 19.0 °F 64% 29.63 in - WNW 17.3 mph 27.6 mph N/A   Unknown
9:54 AM 33.1 °F 20.9 °F 19.9 °F 59% 29.62 in - WNW 21.9 mph 31.1 mph N/A   Unknown
10:54 AM 35.1 °F 24.8 °F 21.0 °F 57% 29.61 in - WNW 17.3 mph 28.8 mph N/A   Unknown
11:54 AM 37.0 °F 26.7 °F 19.9 °F 50% 29.60 in - NW 19.6 mph 28.8 mph N/A   Unknown
12:54 PM 37.9 °F 27.3 °F 21.0 °F 51% 29.59 in - West 21.9 mph 31.1 mph N/A   Unknown
1:54 PM 36.0 °F 25.6 °F 21.0 °F 55% 29.59 in - NW 18.4 mph 28.8 mph N/A   Unknown
2:54 PM 37.0 °F 26.2 °F 21.9 °F 54% 29.59 in - NW 21.9 mph 33.4 mph N/A   Unknown
3:54 PM 37.0 °F 27.7 °F 21.9 °F 54% 29.60 in - WNW 16.1 mph 26.5 mph N/A   Unknown
4:54 PM 35.1 °F 25.9 °F 23.0 °F 61% 29.62 in - NW 13.8 mph 24.2 mph N/A   Unknown
5:54 PM 34.0 °F 22.7 °F 23.0 °F 64% 29.65 in - NW 19.6 mph 31.1 mph N/A   Unknown
6:54 PM 32.0 °F 19.8 °F 24.1 °F 73% 29.68 in - NW 20.7 mph 31.1 mph N/A   Unknown
7:54 PM 32.0 °F 22.5 °F 24.1 °F 73% 29.69 in - WNW 12.7 mph 29.9 mph N/A   Unknown
8:54 PM 32.0 °F 20.5 °F 21.9 °F 66% 29.70 in - NW 18.4 mph 27.6 mph N/A   Unknown
9:54 PM 32.0 °F 21.2 °F 21.9 °F 66% 29.71 in - NW 16.1 mph 33.4 mph N/A   Unknown
10:54 PM 30.9 °F 20.2 °F 21.9 °F 69% 29.72 in - NW 15.0 mph 28.8 mph N/A   Unknown
11:54 PM 30.9 °F 20.2 °F 21.0 °F 67% 29.74 in - NW 15.0 mph 24.2 mph N/A   Unknown